Weather History for Pueblo, CO

Change the Weather History Date:

Wednesday, May 21, 2014

  Actual Average Record
Temperature  
Mean Temperature 69 °F 62 °F  
Max Temperature 78 °F 78 °F 97 °F (2005)
Min Temperature 60 °F 46 °F 33 °F (2001)
Degree Days  
Heating Degree Days 0 4  
Month to date heating degree days 150 141  
Since 1 July heating degree days 5407 5581  
Cooling Degree Days 4 1  
Month to date cooling degree days 19 12  
Year to date cooling degree days 21 14  
Growing Degree Days 20 (Base 50)    
Moisture  
Dew Point 49 °F    
Average Humidity 55    
Maximum Humidity 78    
Minimum Humidity 31    
Precipitation  
Precipitation T in 0.05 in 1.01 in (1959)
Month to date precipitation 0.25 1.03  
Year to date precipitation 3.80 4.01  
Snow  
Snow 0.00 in 0.00 in 0.20 in (2001)
Month to date snowfall T 0.5  
Since 1 July snowfall 29.3 31.8  
Snow Depth 0.00 in    
Sea Level Pressure  
Sea Level Pressure 29.93 in    
Wind  
Wind Speed 13 mph (ENE)    
Max Wind Speed 21 mph    
Max Gust Speed 28 mph    
Visibility 10 miles    
Events Rain    
T = Trace of Precipitation, MM = Missing Value Source: NWS Daily Summary

Daily Weather History Graph

Daily Weather History Graph

Search for Another Location

Airport:

Trip Planner

Search our weather history database for the weather conditions in past years. The results will help you decide how hot, cold, wet, or windy it might be!

Date:

Astronomy

May. 21, 2014 Rise Set
Actual Time 5:42 AM MDT 8:07 PM MDT
Civil Twilight 5:12 AM MDT 8:37 PM MDT
Nautical Twilight 4:34 AM MDT 9:15 PM MDT
Astronomical Twilight 3:53 AM MDT 9:56 PM MDT
Moon 1:20 AM MDT (5/21) 12:57 PM MDT (5/21)
Length of Visible Light 15h 25m
Length of Day
14h 25m
Waning Gibbous, 48% of the Moon is Illuminated
May 21
Waning Gibbous
May 28
New
Jun 5
First Quarter
Jun 12
Full
Jun 19
Last Quarter

Hourly Weather History & Observations

Time (MDT) Temp. Dew Point Humidity Pressure Visibility Wind Dir Wind Speed Gust Speed Precip Events Conditions
12:53 AM 64.9 °F 53.1 °F 65% 29.79 in 10.0 mi NE 8.1 mph - N/A   Clear
1:53 AM 62.1 °F 52.0 °F 70% 29.81 in 10.0 mi North 5.8 mph - N/A   Scattered Clouds
2:12 AM 61.0 °F 52.0 °F 72% 29.99 in 10.0 mi North 6.9 mph - N/A   Mostly Cloudy
2:20 AM 61.0 °F 52.0 °F 72% 29.99 in 10.0 mi North 8.1 mph - N/A   Mostly Cloudy
2:41 AM 61.0 °F 52.0 °F 72% 30.00 in 10.0 mi North 10.4 mph - N/A   Overcast
2:53 AM 61.0 °F 52.0 °F 72% 29.83 in 10.0 mi North 9.2 mph - N/A   Overcast
3:53 AM 61.0 °F 53.1 °F 75% 29.84 in 10.0 mi NE 9.2 mph - N/A   Clear
4:34 AM 60.1 °F 53.1 °F 78% 30.03 in 10.0 mi NNE 6.9 mph - N/A   Mostly Cloudy
4:53 AM 61.0 °F 53.1 °F 75% 29.86 in 10.0 mi NE 6.9 mph - N/A   Overcast
5:45 AM 62.1 °F 53.1 °F 72% 30.06 in 10.0 mi NE 10.4 mph - N/A   Overcast
5:53 AM 62.1 °F 53.1 °F 72% 29.88 in 10.0 mi NE 10.4 mph - N/A   Overcast
6:53 AM 63.0 °F 53.1 °F 70% 29.91 in 10.0 mi NE 12.7 mph - N/A   Overcast
7:53 AM 64.0 °F 53.1 °F 67% 29.94 in 10.0 mi ENE 18.4 mph - N/A   Overcast
8:11 AM 64.0 °F 51.1 °F 63% 30.12 in 10.0 mi ENE 19.6 mph - N/A   Overcast
8:36 AM 64.0 °F 50.0 °F 60% 30.13 in 10.0 mi ENE 17.3 mph - N/A   Overcast
9:53 AM 66.9 °F 51.1 °F 57% 29.99 in 10.0 mi ESE 10.4 mph - N/A   Partly Cloudy
10:53 AM 68.0 °F 52.0 °F 56% 29.98 in 10.0 mi SSE 9.2 mph - N/A   Scattered Clouds
11:53 AM 71.6 °F 50.0 °F 46% 30.11 in 10.0 mi East 11.5 mph - N/A   Partly Cloudy
12:53 PM 75.0 °F 48.9 °F 40% 29.91 in 10.0 mi East 15.0 mph 19.6 mph N/A   Clear
1:53 PM 73.9 °F 46.9 °F 38% 29.91 in 10.0 mi SE 11.5 mph - N/A   Clear
2:53 PM 72.0 °F 48.9 °F 44% 29.96 in 10.0 mi SSE 17.3 mph - N/A   Mostly Cloudy
3:53 PM 70.0 °F 46.0 °F 42% 29.94 in 10.0 mi SE 11.5 mph 20.7 mph 0.00 in Rain Light Rain
4:08 PM 73.0 °F 46.0 °F 38% 30.05 in 10.0 mi East 12.7 mph - 0.00 in   Scattered Clouds
4:53 PM 75.0 °F 48.9 °F 40% 29.86 in 10.0 mi SE 15.0 mph - 0.00 in   Clear
5:53 PM 77.0 °F 46.0 °F 33% 29.83 in 10.0 mi SE 18.4 mph - N/A   Clear
6:53 PM 77.0 °F 45.0 °F 32% 29.81 in 10.0 mi SE 17.3 mph 24.2 mph N/A   Clear
7:53 PM 73.0 °F 42.1 °F 33% 29.83 in 10.0 mi ESE 16.1 mph - N/A   Clear
8:53 PM 68.0 °F 42.1 °F 39% 29.88 in 10.0 mi East 13.8 mph - N/A   Clear
9:53 PM 66.9 °F 43.0 °F 42% 29.91 in 10.0 mi East 13.8 mph - N/A   Clear
10:53 PM 64.9 °F 45.0 °F 48% 29.93 in 10.0 mi East 9.2 mph - N/A   Clear
11:53 PM 64.0 °F 46.0 °F 52% 29.95 in 10.0 mi NE 12.7 mph - N/A   Partly Cloudy